Estación de Tranapuente INIA

Ultimos registro cada 15 minutos 71
Estación Fecha / Hora Temperatura Humedad Lluvia Velocidad Dirección Radiación Presion
71 Tranapuente INIA 02-05-2026 17:30 13,8 64,6 0 0 294 92 1009
70 Tranapuente INIA 02-05-2026 17:15 14,6 59,8 0 0 235 134 1009
69 Tranapuente INIA 02-05-2026 17:00 15,3 65 0 0 0 176 1009
68 Tranapuente INIA 02-05-2026 16:45 14,9 61,7 0 0 0 216 1009
67 Tranapuente INIA 02-05-2026 16:30 14,1 60 0 0 0 254 1009
66 Tranapuente INIA 02-05-2026 16:15 13,9 62,3 0 0 184 290 1009
65 Tranapuente INIA 02-05-2026 16:00 15,2 60,4 0 0 233 325 1009
64 Tranapuente INIA 02-05-2026 15:45 15,9 55,4 0 0,1 240 360 1009
63 Tranapuente INIA 02-05-2026 15:30 15,9 45,3 0 0 0 394 1010
62 Tranapuente INIA 02-05-2026 15:15 15,4 44,7 0 0 0 424 1009
61 Tranapuente INIA 02-05-2026 15:00 15,3 46,4 0 0 0 451 1010
60 Tranapuente INIA 02-05-2026 14:45 15 47,4 0 0,3 161 476 1010
59 Tranapuente INIA 02-05-2026 14:30 14,4 40,2 0 1,2 149 508 1010
58 Tranapuente INIA 02-05-2026 14:15 14 44,4 0 0,6 152 464 1010
57 Tranapuente INIA 02-05-2026 14:00 13,4 46,1 0 0,2 113 385 1010
56 Tranapuente INIA 02-05-2026 13:45 13,6 48 0 0,7 142 497 1010
55 Tranapuente INIA 02-05-2026 13:30 13,3 48 0 1,8 150 537 1011
54 Tranapuente INIA 02-05-2026 13:15 13,3 47,6 0 1,4 163 550 1011
53 Tranapuente INIA 02-05-2026 13:00 12,9 48,5 0 1,7 146 550 1011
52 Tranapuente INIA 02-05-2026 12:45 12,6 51,4 0 1,8 161 547 1012
51 Tranapuente INIA 02-05-2026 12:30 12,3 53,5 0 2,3 152 544 1012
50 Tranapuente INIA 02-05-2026 12:15 12 50 0 2 155 542 1012
49 Tranapuente INIA 02-05-2026 12:00 11,7 48,2 0 2,1 153 525 1012
48 Tranapuente INIA 02-05-2026 11:45 11,4 47 0 1,5 148 509 1013
47 Tranapuente INIA 02-05-2026 11:30 11 55,8 0 1,8 150 491 1013
46 Tranapuente INIA 02-05-2026 11:15 10,6 53,6 0 1,9 145 472 1013
45 Tranapuente INIA 02-05-2026 11:00 10,3 58,1 0 1,1 163 445 1013
44 Tranapuente INIA 02-05-2026 10:45 10 63,4 0 1,1 153 418 1014
43 Tranapuente INIA 02-05-2026 10:30 9,2 63,2 0 1,5 149 386 1014
42 Tranapuente INIA 02-05-2026 10:15 9,1 70,1 0,1 1,4 167 361 1014
41 Tranapuente INIA 02-05-2026 10:00 8,8 70,8 0 1,1 118 324 1014
40 Tranapuente INIA 02-05-2026 09:45 7,6 72 0 0,8 160 280 1014
39 Tranapuente INIA 02-05-2026 09:30 6,6 77 0 2 173 251 1014
38 Tranapuente INIA 02-05-2026 09:15 6,7 79,1 0 0,4 192 210 1014
37 Tranapuente INIA 02-05-2026 09:00 6,8 76,3 0 0,1 195 122 1014
36 Tranapuente INIA 02-05-2026 08:45 6 78,2 0 0,2 138 137 1014
35 Tranapuente INIA 02-05-2026 08:30 4,4 82,3 0 0,9 97 90 1014
34 Tranapuente INIA 02-05-2026 08:15 3,9 86,2 0 0,9 93 55 1014
33 Tranapuente INIA 02-05-2026 08:00 3,1 92 0 0,9 71 24 1014
32 Tranapuente INIA 02-05-2026 07:45 3,1 94,9 0 0,3 78 6 1015
31 Tranapuente INIA 02-05-2026 07:30 3,3 94,9 0 0,1 106 1 1015
30 Tranapuente INIA 02-05-2026 07:15 3,8 93,5 0 0 0 0 1015
29 Tranapuente INIA 02-05-2026 07:00 4 93,2 0 0 0 0 1015
28 Tranapuente INIA 02-05-2026 06:45 4,4 91 0 0 0 0 1015
27 Tranapuente INIA 02-05-2026 06:30 4,2 93,6 0 0 0 0 1015
26 Tranapuente INIA 02-05-2026 06:15 4,5 90,6 0 0,1 139 0 1015
25 Tranapuente INIA 02-05-2026 06:00 4,6 90,7 0 0,8 117 0 1015
24 Tranapuente INIA 02-05-2026 05:45 4 95,9 0 1,2 118 0 1015
23 Tranapuente INIA 02-05-2026 05:30 3 96,9 0 1,4 102 0 1015
22 Tranapuente INIA 02-05-2026 05:15 3,1 96,2 0 1,1 116 0 1016
21 Tranapuente INIA 02-05-2026 05:00 3,2 97,9 0 0,2 120 0 1016
20 Tranapuente INIA 02-05-2026 04:45 3,5 95,4 0 0 0 0 1016
19 Tranapuente INIA 02-05-2026 04:30 4 95,5 0 0 0 0 1016
18 Tranapuente INIA 02-05-2026 04:15 4,2 95 0 0 0 0 1016
17 Tranapuente INIA 02-05-2026 04:00 4,2 93,5 0 0,1 330 0 1017
16 Tranapuente INIA 02-05-2026 03:45 4,3 93,2 0 0 342 0 1017
15 Tranapuente INIA 02-05-2026 03:30 3,8 94,6 0 0,2 342 0 1017
14 Tranapuente INIA 02-05-2026 03:15 4 94,4 0 0,2 342 0 1017
13 Tranapuente INIA 02-05-2026 03:00 3,9 92,9 0 0 341 0 1017
12 Tranapuente INIA 02-05-2026 02:45 3,8 94,9 0 0 0 0 1018
11 Tranapuente INIA 02-05-2026 02:30 4,3 92,5 0 0 0 0 1018
10 Tranapuente INIA 02-05-2026 02:15 4,3 93,3 0 0 341 0 1018
9 Tranapuente INIA 02-05-2026 02:00 3,8 94,9 0 0 0 0 1018
8 Tranapuente INIA 02-05-2026 01:45 3,7 95,7 0 0 0 0 1018
7 Tranapuente INIA 02-05-2026 01:30 3,9 95,8 0 0 0 0 1019
6 Tranapuente INIA 02-05-2026 01:15 4 95,4 0 0 0 0 1019
5 Tranapuente INIA 02-05-2026 01:00 4,1 95,6 0 0 0 0 1019
4 Tranapuente INIA 02-05-2026 00:45 4,3 94,6 0 0 0 0 1019
3 Tranapuente INIA 02-05-2026 00:30 4,6 93,5 0 0 0 0 1019
2 Tranapuente INIA 02-05-2026 00:15 4,9 93,2 0 0 0 0 1019
1 Tranapuente INIA 02-05-2026 00:00 5,1 92,3 0 0 0 0 1019